Time,TemperatureF,DewpointF,PressureIn,WindDirection,WindDirectionDegrees,WindSpeedMPH,WindSpeedGustMPH,Humidity,HourlyPrecipIn,Conditions,Clouds,dailyrainin,SoftwareType,DateUTC
2013-03-08 00:01:00,19.0,17.0,30.31,ESE,111,3.0,5.0,92,0.00,,,0.03,,2013-03-08 06:01:00,
2013-03-08 00:11:00,19.0,17.0,30.31,ESE,111,3.0,5.0,92,0.00,,,0.03,,2013-03-08 06:11:00,
2013-03-08 00:21:00,19.0,17.0,30.31,ESE,111,1.0,3.0,92,0.00,,,0.03,,2013-03-08 06:21:00,
2013-03-08 00:32:00,19.0,17.0,30.31,ESE,114,2.0,5.0,92,0.00,,,0.03,,2013-03-08 06:32:00,
2013-03-08 00:42:00,19.0,17.0,30.31,ESE,114,2.0,5.0,92,0.00,,,0.03,,2013-03-08 06:42:00,
2013-03-08 00:52:00,19.0,17.0,30.31,ESE,114,2.0,5.0,92,0.00,,,0.03,,2013-03-08 06:52:00,
2013-03-08 01:01:00,18.0,16.0,30.31,ESE,103,3.0,5.0,92,0.00,,,0.03,,2013-03-08 07:01:00,
2013-03-08 01:11:00,18.0,16.0,30.31,ESE,103,3.0,5.0,92,0.00,,,0.03,,2013-03-08 07:11:00,
2013-03-08 01:22:00,18.0,16.0,30.30,SE,126,4.0,7.0,92,0.00,,,0.03,,2013-03-08 07:22:00,
2013-03-08 01:32:00,18.0,16.0,30.30,SE,126,4.0,7.0,92,0.00,,,0.03,,2013-03-08 07:32:00,
2013-03-08 01:42:00,18.0,16.0,30.30,SE,126,4.0,7.0,92,0.00,,,0.03,,2013-03-08 07:42:00,
2013-03-08 01:52:00,21.0,19.0,30.30,East,95,6.0,8.0,93,0.00,,,0.03,,2013-03-08 07:52:00,
2013-03-08 02:01:00,21.0,19.0,30.30,ESE,106,6.0,10.0,91,0.00,,,0.03,,2013-03-08 08:01:00,
2013-03-08 02:11:00,21.0,19.0,30.30,ESE,106,6.0,10.0,91,0.00,,,0.03,,2013-03-08 08:11:00,
2013-03-08 02:21:00,20.0,18.0,30.30,ESE,116,7.0,9.0,91,0.00,,,0.03,,2013-03-08 08:21:00,
2013-03-08 02:31:00,20.0,18.0,30.29,East,96,6.0,9.0,91,0.00,,,0.03,,2013-03-08 08:31:00,
2013-03-08 02:41:00,20.0,18.0,30.29,East,96,6.0,9.0,91,0.00,,,0.03,,2013-03-08 08:41:00,
2013-03-08 02:52:00,20.0,18.0,30.29,ESE,105,6.0,9.0,92,0.00,,,0.03,,2013-03-08 08:52:00,
2013-03-08 03:03:00,21.0,19.0,30.29,ESE,119,6.0,9.0,92,0.00,,,0.03,,2013-03-08 09:03:00,
2013-03-08 03:11:00,21.0,19.0,30.29,ESE,119,6.0,9.0,92,0.00,,,0.03,,2013-03-08 09:11:00,
2013-03-08 03:21:00,21.0,19.0,30.29,ESE,103,5.0,8.0,92,0.00,,,0.03,,2013-03-08 09:21:00,
2013-03-08 03:32:00,21.0,19.0,30.29,ESE,111,5.0,7.0,92,0.00,,,0.03,,2013-03-08 09:32:00,
2013-03-08 03:42:00,21.0,19.0,30.29,ESE,111,5.0,7.0,92,0.00,,,0.03,,2013-03-08 09:42:00,
2013-03-08 03:52:00,21.0,19.0,30.29,East,101,4.0,7.0,92,0.00,,,0.03,,2013-03-08 09:52:00,
2013-03-08 04:01:00,21.0,19.0,30.29,ESE,104,6.0,8.0,92,0.00,,,0.03,,2013-03-08 10:01:00,
2013-03-08 04:11:00,21.0,19.0,30.29,ESE,104,6.0,8.0,92,0.00,,,0.03,,2013-03-08 10:11:00,
2013-03-08 04:21:00,20.0,18.0,30.29,ESE,103,4.0,8.0,92,0.00,,,0.03,,2013-03-08 10:21:00,
2013-03-08 04:31:00,21.0,19.0,30.29,ESE,105,5.0,8.0,93,0.00,,,0.03,,2013-03-08 10:31:00,
2013-03-08 04:41:00,21.0,19.0,30.29,ESE,105,5.0,8.0,93,0.00,,,0.03,,2013-03-08 10:41:00,
2013-03-08 04:52:00,21.0,19.0,30.29,ESE,107,8.0,9.0,93,0.00,,,0.03,,2013-03-08 10:52:00,
2013-03-08 05:01:00,21.0,19.0,30.29,ESE,121,6.0,9.0,92,0.00,,,0.03,,2013-03-08 11:01:00,
2013-03-08 05:11:00,21.0,19.0,30.29,ESE,121,6.0,9.0,92,0.00,,,0.03,,2013-03-08 11:11:00,
2013-03-08 05:21:00,22.0,20.0,30.29,ESE,117,7.0,10.0,93,0.00,,,0.03,,2013-03-08 11:21:00,
2013-03-08 05:32:00,23.0,21.0,30.29,ESE,111,6.0,9.0,93,0.00,,,0.03,,2013-03-08 11:32:00,
2013-03-08 05:42:00,23.0,21.0,30.29,ESE,111,6.0,9.0,93,0.00,,,0.03,,2013-03-08 11:42:00,
2013-03-08 05:52:00,22.0,20.0,30.30,ESE,119,5.0,10.0,92,0.00,,,0.03,,2013-03-08 11:52:00,
2013-03-08 06:01:00,22.0,20.0,30.29,ESE,114,7.0,10.0,92,0.00,,,0.03,,2013-03-08 12:01:00,
2013-03-08 06:11:00,22.0,20.0,30.29,ESE,114,7.0,10.0,92,0.00,,,0.03,,2013-03-08 12:11:00,
2013-03-08 06:22:00,22.0,20.0,30.29,ESE,107,7.0,10.0,92,0.00,,,0.03,,2013-03-08 12:22:00,
2013-03-08 06:32:00,22.0,20.0,30.29,ESE,109,5.0,8.0,92,0.00,,,0.03,,2013-03-08 12:32:00,
2013-03-08 06:43:00,22.0,20.0,30.29,ESE,109,5.0,8.0,92,0.00,,,0.03,,2013-03-08 12:43:00,
2013-03-08 06:53:00,22.0,20.0,30.29,ESE,110,7.0,10.0,92,0.00,,,0.03,,2013-03-08 12:53:00,
2013-03-08 07:01:00,22.0,20.0,30.29,ESE,105,7.0,10.0,92,0.00,,,0.03,,2013-03-08 13:01:00,
2013-03-08 07:11:00,22.0,20.0,30.29,ESE,105,7.0,10.0,92,0.00,,,0.03,,2013-03-08 13:11:00,
2013-03-08 07:21:00,23.0,21.0,30.29,East,97,8.0,11.0,92,0.00,,,0.03,,2013-03-08 13:21:00,
2013-03-08 07:32:00,23.0,21.0,30.29,SE,125,8.0,11.0,92,0.00,,,0.03,,2013-03-08 13:32:00,
2013-03-08 07:42:00,23.0,21.0,30.29,SE,125,8.0,11.0,92,0.00,,,0.03,,2013-03-08 13:42:00,
2013-03-08 07:52:00,24.0,22.0,30.29,ESE,111,8.0,13.0,91,0.00,,,0.03,,2013-03-08 13:52:00,
2013-03-08 08:02:00,25.0,23.0,30.29,East,97,11.0,14.0,91,0.00,,,0.03,,2013-03-08 14:02:00,
2013-03-08 08:11:00,25.0,23.0,30.29,East,97,11.0,14.0,91,0.00,,,0.03,,2013-03-08 14:11:00,
2013-03-08 08:22:00,26.0,23.0,30.29,ESE,111,8.0,14.0,90,0.00,,,0.03,,2013-03-08 14:22:00,
2013-03-08 08:32:00,27.0,24.0,30.29,ESE,117,10.0,14.0,89,0.00,,,0.03,,2013-03-08 14:32:00,
2013-03-08 08:42:00,27.0,24.0,30.29,ESE,117,10.0,14.0,89,0.00,,,0.03,,2013-03-08 14:42:00,
2013-03-08 08:52:00,28.0,25.0,30.29,ESE,105,10.0,14.0,88,0.00,,,0.03,,2013-03-08 14:52:00,
2013-03-08 09:02:00,29.0,26.0,30.29,East,91,9.0,15.0,87,0.00,,,0.03,,2013-03-08 15:02:00,
2013-03-08 09:11:00,30.0,27.0,30.30,SE,139,10.0,14.0,87,0.00,,,0.03,,2013-03-08 15:11:00,
2013-03-08 09:22:00,30.0,27.0,30.30,SE,139,10.0,14.0,87,0.00,,,0.03,,2013-03-08 15:22:00,
2013-03-08 09:32:00,30.0,26.0,30.29,SE,134,10.0,17.0,86,0.00,,,0.03,,2013-03-08 15:32:00,
2013-03-08 09:42:00,30.0,26.0,30.29,SE,134,10.0,17.0,86,0.00,,,0.03,,2013-03-08 15:42:00,
2013-03-08 09:53:00,31.0,27.0,30.29,ESE,106,10.0,19.0,85,0.00,,,0.03,,2013-03-08 15:53:00,
2013-03-08 10:01:00,32.0,28.0,30.29,SE,128,9.0,17.0,84,0.00,,,0.03,,2013-03-08 16:01:00,
2013-03-08 10:11:00,32.0,28.0,30.29,SE,128,9.0,17.0,84,0.00,,,0.03,,2013-03-08 16:11:00,
2013-03-08 10:21:00,34.0,30.0,30.29,ESE,123,12.0,17.0,84,0.00,,,0.03,,2013-03-08 16:21:00,
2013-03-08 10:32:00,35.0,30.0,30.29,SE,137,12.0,19.0,83,0.00,,,0.03,,2013-03-08 16:32:00,
2013-03-08 10:42:00,35.0,30.0,30.29,SE,137,12.0,19.0,83,0.00,,,0.03,,2013-03-08 16:42:00,
2013-03-08 10:52:00,35.0,30.0,30.28,ESE,123,15.0,22.0,82,0.00,,,0.03,,2013-03-08 16:52:00,
2013-03-08 11:02:00,36.0,31.0,30.28,ESE,111,12.0,19.0,82,0.00,,,0.03,,2013-03-08 17:02:00,
2013-03-08 11:11:00,36.0,31.0,30.28,ESE,111,12.0,19.0,82,0.00,,,0.03,,2013-03-08 17:11:00,
2013-03-08 11:21:00,36.0,31.0,30.28,SE,126,13.0,21.0,81,0.00,,,0.02,,2013-03-08 17:21:00,
2013-03-08 11:32:00,37.0,32.0,30.28,SE,136,12.0,16.0,81,0.00,,,0.02,,2013-03-08 17:32:00,
2013-03-08 11:42:00,37.0,32.0,30.28,SE,136,12.0,16.0,81,0.00,,,0.02,,2013-03-08 17:42:00,
2013-03-08 11:52:00,37.0,31.0,30.29,SE,136,10.0,14.0,80,0.00,,,0.02,,2013-03-08 17:52:00,
2013-03-08 12:02:00,38.0,32.0,30.29,SE,128,12.0,16.0,79,0.00,,,0.02,,2013-03-08 18:02:00,
2013-03-08 12:11:00,38.0,32.0,30.29,SE,128,12.0,16.0,79,0.00,,,0.02,,2013-03-08 18:11:00,
2013-03-08 12:21:00,38.0,32.0,30.28,ESE,107,9.0,18.0,80,0.00,,,0.02,,2013-03-08 18:21:00,
2013-03-08 12:32:00,38.0,32.0,30.28,ESE,107,9.0,18.0,80,0.00,,,0.02,,2013-03-08 18:32:00,
2013-03-08 12:42:00,38.0,32.0,30.28,ESE,107,9.0,18.0,80,0.00,,,0.02,,2013-03-08 18:42:00,
2013-03-08 12:52:00,39.0,33.0,30.27,ESE,121,9.0,14.0,78,0.00,,,0.02,,2013-03-08 18:52:00,
2013-03-08 13:01:00,39.0,33.0,30.26,ESE,123,9.0,14.0,78,0.00,,,0.02,,2013-03-08 19:01:00,
2013-03-08 13:11:00,39.0,33.0,30.26,ESE,123,9.0,14.0,78,0.00,,,0.02,,2013-03-08 19:11:00,
2013-03-08 13:21:00,40.0,33.0,30.25,ESE,117,9.0,17.0,76,0.00,,,0.01,,2013-03-08 19:21:00,
2013-03-08 13:32:00,40.0,33.0,30.24,ESE,113,8.0,13.0,77,0.00,,,0.01,,2013-03-08 19:32:00,
2013-03-08 13:41:00,40.0,33.0,30.24,ESE,113,8.0,13.0,77,0.00,,,0.01,,2013-03-08 19:41:00,
2013-03-08 13:52:00,40.0,33.0,30.23,ESE,117,8.0,12.0,76,0.00,,,0.01,,2013-03-08 19:52:00,
2013-03-08 14:01:00,40.0,33.0,30.23,ESE,117,10.0,15.0,76,0.00,,,0.01,,2013-03-08 20:01:00,
2013-03-08 14:11:00,40.0,33.0,30.23,ESE,117,10.0,15.0,76,0.00,,,0.01,,2013-03-08 20:11:00,
2013-03-08 14:21:00,41.0,34.0,30.22,ESE,113,8.0,10.0,75,0.00,,,0.01,,2013-03-08 20:21:00,
2013-03-08 14:32:00,41.0,34.0,30.22,ESE,107,8.0,12.0,75,0.00,,,0.01,,2013-03-08 20:32:00,
2013-03-08 14:42:00,41.0,34.0,30.22,ESE,107,8.0,12.0,75,0.00,,,0.01,,2013-03-08 20:42:00,
2013-03-08 14:53:00,40.0,33.0,30.22,East,90,8.0,13.0,76,0.00,,,0.01,,2013-03-08 20:53:00,
2013-03-08 15:02:00,40.0,33.0,30.22,ESE,120,8.0,13.0,77,0.00,,,0.01,,2013-03-08 21:02:00,
2013-03-08 15:11:00,40.0,33.0,30.22,ESE,120,8.0,13.0,77,0.00,,,0.01,,2013-03-08 21:11:00,
2013-03-08 15:21:00,40.0,33.0,30.22,ESE,113,9.0,13.0,77,0.00,,,0.00,,2013-03-08 21:21:00,
2013-03-08 15:32:00,40.0,33.0,30.22,ESE,112,9.0,14.0,76,0.00,,,0.00,,2013-03-08 21:32:00,
2013-03-08 15:42:00,40.0,33.0,30.22,ESE,112,9.0,14.0,76,0.00,,,0.00,,2013-03-08 21:42:00,
2013-03-08 15:52:00,40.0,33.0,30.22,SE,125,9.0,13.0,77,0.00,,,0.00,,2013-03-08 21:52:00,
2013-03-08 16:01:00,40.0,34.0,30.22,East,99,9.0,13.0,78,0.00,,,0.00,,2013-03-08 22:01:00,
2013-03-08 16:11:00,40.0,34.0,30.22,East,99,9.0,13.0,78,0.00,,,0.00,,2013-03-08 22:11:00,
2013-03-08 16:22:00,40.0,34.0,30.21,East,96,10.0,14.0,78,0.00,,,0.00,,2013-03-08 22:22:00,
2013-03-08 16:32:00,39.0,33.0,30.21,SE,124,8.0,14.0,79,0.00,,,0.00,,2013-03-08 22:32:00,
2013-03-08 16:42:00,39.0,33.0,30.21,SE,124,8.0,14.0,79,0.00,,,0.00,,2013-03-08 22:42:00,
2013-03-08 16:52:00,39.0,33.0,30.21,East,99,8.0,12.0,80,0.00,,,0.00,,2013-03-08 22:52:00,
2013-03-08 17:01:00,38.0,32.0,30.21,ESE,109,8.0,11.0,80,0.00,,,0.00,,2013-03-08 23:01:00,
2013-03-08 17:11:00,38.0,32.0,30.21,ESE,109,8.0,11.0,80,0.00,,,0.00,,2013-03-08 23:11:00,
2013-03-08 17:21:00,38.0,33.0,30.22,ESE,117,6.0,12.0,82,0.00,,,0.00,,2013-03-08 23:21:00,
2013-03-08 17:32:00,37.0,32.0,30.22,ESE,113,7.0,11.0,83,0.00,,,0.00,,2013-03-08 23:32:00,
2013-03-08 17:42:00,37.0,32.0,30.22,ESE,113,7.0,11.0,83,0.00,,,0.00,,2013-03-08 23:42:00,
2013-03-08 17:53:00,37.0,32.0,30.21,East,100,9.0,13.0,83,0.00,,,0.00,,2013-03-08 23:53:00,
2013-03-08 18:02:00,37.0,32.0,30.20,ESE,107,9.0,11.0,83,0.00,,,0.00,,2013-03-09 00:02:00,
2013-03-08 18:11:00,37.0,32.0,30.20,ESE,107,9.0,11.0,83,0.00,,,0.00,,2013-03-09 00:11:00,
2013-03-08 18:22:00,37.0,32.0,30.19,East,92,9.0,14.0,83,0.00,,,0.00,,2013-03-09 00:22:00,
2013-03-08 18:32:00,37.0,32.0,30.19,SE,127,9.0,14.0,82,0.00,,,0.00,,2013-03-09 00:32:00,
2013-03-08 18:42:00,37.0,32.0,30.19,SE,127,9.0,14.0,82,0.00,,,0.00,,2013-03-09 00:42:00,
2013-03-08 18:52:00,37.0,32.0,30.18,East,96,10.0,15.0,82,0.00,,,0.00,,2013-03-09 00:52:00,
2013-03-08 19:01:00,37.0,32.0,30.18,ESE,107,9.0,13.0,82,0.00,,,0.00,,2013-03-09 01:01:00,
2013-03-08 19:12:00,37.0,32.0,30.17,East,101,9.0,14.0,83,0.00,,,0.00,,2013-03-09 01:12:00,
2013-03-08 19:21:00,37.0,32.0,30.17,East,101,9.0,14.0,83,0.00,,,0.00,,2013-03-09 01:21:00,
2013-03-08 19:32:00,36.0,32.0,30.16,East,84,9.0,14.0,84,0.00,,,0.00,,2013-03-09 01:32:00,
2013-03-08 19:42:00,36.0,32.0,30.16,East,84,9.0,14.0,84,0.00,,,0.00,,2013-03-09 01:42:00,
2013-03-08 19:52:00,36.0,32.0,30.16,East,80,9.0,17.0,84,0.00,,,0.00,,2013-03-09 01:52:00,
2013-03-08 20:01:00,36.0,32.0,30.15,East,101,7.0,15.0,85,0.00,,,0.00,,2013-03-09 02:01:00,
2013-03-08 20:11:00,36.0,32.0,30.15,East,101,7.0,15.0,85,0.00,,,0.00,,2013-03-09 02:11:00,
2013-03-08 20:21:00,36.0,32.0,30.15,ESE,103,9.0,16.0,86,0.00,,,0.00,,2013-03-09 02:21:00,
2013-03-08 20:31:00,36.0,32.0,30.15,ESE,107,5.0,14.0,86,0.00,,,0.00,,2013-03-09 02:31:00,
2013-03-08 20:41:00,36.0,32.0,30.15,ESE,109,5.0,10.0,86,0.00,,,0.00,,2013-03-09 02:41:00,
2013-03-08 20:51:00,36.0,32.0,30.15,ESE,109,5.0,10.0,86,0.00,,,0.00,,2013-03-09 02:51:00,
2013-03-08 21:01:00,35.0,32.0,30.15,ESE,107,7.0,10.0,87,0.00,,,0.00,,2013-03-09 03:01:00,
2013-03-08 21:11:00,35.0,32.0,30.15,ESE,107,7.0,10.0,87,0.00,,,0.00,,2013-03-09 03:11:00,
2013-03-08 21:21:00,36.0,33.0,30.14,East,86,8.0,12.0,87,0.00,,,0.00,,2013-03-09 03:21:00,
2013-03-08 21:31:00,36.0,33.0,30.14,East,80,8.0,12.0,87,0.00,,,0.00,,2013-03-09 03:31:00,
2013-03-08 21:41:00,36.0,33.0,30.14,East,80,8.0,12.0,87,0.00,,,0.00,,2013-03-09 03:41:00,
2013-03-08 21:52:00,36.0,33.0,30.14,ENE,74,8.0,14.0,87,0.00,,,0.00,,2013-03-09 03:52:00,
2013-03-08 22:01:00,36.0,33.0,30.14,ESE,107,9.0,14.0,87,0.00,,,0.00,,2013-03-09 04:01:00,
2013-03-08 22:11:00,36.0,33.0,30.14,ESE,107,9.0,14.0,87,0.00,,,0.00,,2013-03-09 04:11:00,
2013-03-08 22:22:00,36.0,33.0,30.14,ENE,62,9.0,17.0,87,0.00,,,0.00,,2013-03-09 04:22:00,
2013-03-08 22:32:00,36.0,33.0,30.14,East,94,9.0,14.0,87,0.00,,,0.00,,2013-03-09 04:32:00,
2013-03-08 22:41:00,36.0,33.0,30.14,East,94,9.0,14.0,87,0.00,,,0.00,,2013-03-09 04:41:00,
2013-03-08 22:52:00,36.0,33.0,30.14,ESE,115,8.0,11.0,87,0.00,,,0.00,,2013-03-09 04:52:00,
2013-03-08 23:02:00,36.0,33.0,30.13,ESE,108,7.0,12.0,88,0.00,,,0.00,,2013-03-09 05:02:00,
2013-03-08 23:12:00,36.0,33.0,30.13,ESE,108,7.0,12.0,88,0.00,,,0.00,,2013-03-09 05:12:00,
2013-03-08 23:22:00,36.0,33.0,30.12,SE,128,8.0,15.0,89,0.00,,,0.00,,2013-03-09 05:22:00,
2013-03-08 23:31:00,36.0,33.0,30.11,ESE,119,9.0,14.0,89,0.00,,,0.00,,2013-03-09 05:31:00,
2013-03-08 23:42:00,36.0,33.0,30.11,ESE,119,9.0,14.0,89,0.00,,,0.00,,2013-03-09 05:42:00,
2013-03-08 23:53:00,36.0,33.0,30.11,ESE,106,10.0,17.0,89,0.00,,,0.00,,2013-03-09 05:53:00,